Time,TemperatureF,DewpointF,PressureIn,WindDirection,WindDirectionDegrees,WindSpeedMPH,WindSpeedGustMPH,Humidity,HourlyPrecipIn,Conditions,Clouds,dailyrainin,SoftwareType,DateUTC
2013-03-31 00:01:00,52.0,22.0,30.41,NNW,342,3.0,-999.0,31,-99.99,,,-99.99,,2013-03-31 07:01:00,
2013-03-31 00:11:00,52.0,22.0,30.41,NNW,342,3.0,-999.0,31,-99.99,,,-99.99,,2013-03-31 07:11:00,
2013-03-31 00:21:00,51.0,24.0,30.42,NNW,342,2.0,-999.0,34,-99.99,,,-99.99,,2013-03-31 07:21:00,
2013-03-31 00:31:00,50.0,22.0,30.40,NNW,342,3.0,-999.0,33,-99.99,,,-99.99,,2013-03-31 07:31:00,
2013-03-31 00:42:00,50.0,22.0,30.40,NNW,342,3.0,-999.0,33,-99.99,,,-99.99,,2013-03-31 07:42:00,
2013-03-31 00:52:00,51.0,22.0,30.40,NNW,339,3.0,-999.0,32,-99.99,,,-99.99,,2013-03-31 07:52:00,
2013-03-31 01:01:00,50.0,23.0,30.40,NNW,339,4.0,-999.0,35,-99.99,,,-99.99,,2013-03-31 08:01:00,
2013-03-31 01:12:00,50.0,23.0,30.40,NNW,339,4.0,-999.0,35,-99.99,,,-99.99,,2013-03-31 08:12:00,
2013-03-31 01:21:00,50.0,23.0,30.39,NNW,339,3.0,-999.0,34,-99.99,,,-99.99,,2013-03-31 08:21:00,
2013-03-31 01:31:00,54.0,22.0,30.39,NNW,339,1.0,-999.0,28,-99.99,,,-99.99,,2013-03-31 08:31:00,
2013-03-31 01:42:00,54.0,22.0,30.39,NNW,339,1.0,-999.0,28,-99.99,,,-99.99,,2013-03-31 08:42:00,
2013-03-31 01:52:00,56.0,23.0,30.39,NNW,339,1.0,-999.0,27,-99.99,,,-99.99,,2013-03-31 08:52:00,
2013-03-31 02:01:00,57.0,22.0,30.38,NNW,339,1.0,-999.0,26,-99.99,,,-99.99,,2013-03-31 09:01:00,
2013-03-31 02:11:00,57.0,22.0,30.38,NNW,339,1.0,-999.0,26,-99.99,,,-99.99,,2013-03-31 09:11:00,
2013-03-31 02:21:00,58.0,23.0,30.38,NNW,339,3.0,-999.0,26,-99.99,,,-99.99,,2013-03-31 09:21:00,
2013-03-31 02:32:00,58.0,22.0,30.40,NNW,344,4.0,-999.0,25,-99.99,,,-99.99,,2013-03-31 09:32:00,
2013-03-31 02:53:00,59.0,23.0,30.39,NNW,335,3.0,-999.0,25,-99.99,,,-99.99,,2013-03-31 09:53:00,
2013-03-31 03:02:00,59.0,23.0,30.39,NNW,339,3.0,-999.0,25,-99.99,,,-99.99,,2013-03-31 10:02:00,
2013-03-31 03:22:00,58.0,23.0,30.39,NNW,337,3.0,-999.0,26,-99.99,,,-99.99,,2013-03-31 10:22:00,
2013-03-31 03:32:00,57.0,22.0,30.39,NNW,337,1.0,-999.0,26,-99.99,,,-99.99,,2013-03-31 10:32:00,
2013-03-31 03:53:00,57.0,22.0,30.39,NNW,337,1.0,-999.0,26,-99.99,,,-99.99,,2013-03-31 10:53:00,
2013-03-31 04:02:00,56.0,23.0,30.39,NNW,337,1.0,-999.0,27,-99.99,,,-99.99,,2013-03-31 11:02:00,
2013-03-31 04:22:00,55.0,23.0,30.37,NNW,337,1.0,-999.0,28,-99.99,,,-99.99,,2013-03-31 11:22:00,
2013-03-31 04:32:00,54.0,22.0,30.39,NNW,337,0.0,-999.0,28,-99.99,,,-99.99,,2013-03-31 11:32:00,
2013-03-31 04:52:00,51.0,23.0,30.38,NNW,337,2.0,-999.0,33,-99.99,,,-99.99,,2013-03-31 11:52:00,
2013-03-31 05:02:00,50.0,23.0,30.39,NNW,337,1.0,-999.0,35,-99.99,,,-99.99,,2013-03-31 12:02:00,
2013-03-31 05:11:00,50.0,23.0,30.39,NNW,337,1.0,-999.0,35,-99.99,,,-99.99,,2013-03-31 12:11:00,
2013-03-31 05:22:00,50.0,23.0,30.39,NNW,337,2.0,-999.0,34,-99.99,,,-99.99,,2013-03-31 12:22:00,
2013-03-31 05:32:00,49.0,25.0,30.40,NNW,337,2.0,-999.0,38,-99.99,,,-99.99,,2013-03-31 12:32:00,
2013-03-31 05:42:00,49.0,25.0,30.40,NNW,337,2.0,-999.0,38,-99.99,,,-99.99,,2013-03-31 12:42:00,
2013-03-31 05:52:00,46.0,24.0,30.39,NNW,337,2.0,-999.0,41,-99.99,,,-99.99,,2013-03-31 12:52:00,
2013-03-31 06:01:00,45.0,24.0,30.41,NNW,337,3.0,-999.0,43,-99.99,,,-99.99,,2013-03-31 13:01:00,
2013-03-31 06:12:00,45.0,24.0,30.41,NNW,337,3.0,-999.0,43,-99.99,,,-99.99,,2013-03-31 13:12:00,
2013-03-31 06:21:00,47.0,23.0,30.40,NNW,337,2.0,-999.0,39,-99.99,,,-99.99,,2013-03-31 13:21:00,
2013-03-31 06:31:00,47.0,24.0,30.40,NNW,337,1.0,-999.0,40,-99.99,,,-99.99,,2013-03-31 13:31:00,
2013-03-31 06:41:00,47.0,24.0,30.40,NNW,337,1.0,-999.0,40,-99.99,,,-99.99,,2013-03-31 13:41:00,
2013-03-31 06:52:00,49.0,25.0,30.40,NNW,337,1.0,-999.0,38,-99.99,,,-99.99,,2013-03-31 13:52:00,
2013-03-31 07:01:00,51.0,25.0,30.40,NNW,337,1.0,-999.0,36,-99.99,,,-99.99,,2013-03-31 14:01:00,
2013-03-31 07:22:00,54.0,26.0,30.42,NNW,337,1.0,-999.0,33,-99.99,,,-99.99,,2013-03-31 14:22:00,
2013-03-31 07:32:00,58.0,24.0,30.41,NNW,337,0.0,-999.0,27,-99.99,,,-99.99,,2013-03-31 14:32:00,
2013-03-31 07:52:00,61.0,24.0,30.43,NNW,340,0.0,-999.0,24,-99.99,,,-99.99,,2013-03-31 14:52:00,
2013-03-31 08:01:00,61.0,23.0,30.42,NNW,342,1.0,-999.0,23,-99.99,,,-99.99,,2013-03-31 15:01:00,
2013-03-31 08:22:00,62.0,24.0,30.43,NNW,343,0.0,-999.0,23,-99.99,,,-99.99,,2013-03-31 15:22:00,
2013-03-31 08:33:00,62.0,24.0,30.44,NE,42,2.0,-999.0,23,-99.99,,,-99.99,,2013-03-31 15:33:00,
2013-03-31 08:53:00,62.0,24.0,30.44,ENE,68,3.0,-999.0,23,-99.99,,,-99.99,,2013-03-31 15:53:00,
2013-03-31 09:02:00,63.0,25.0,30.44,ENE,76,2.0,-999.0,23,-99.99,,,-99.99,,2013-03-31 16:02:00,
2013-03-31 09:12:00,63.0,25.0,30.44,ENE,76,2.0,-999.0,23,-99.99,,,-99.99,,2013-03-31 16:12:00,
2013-03-31 09:22:00,64.0,22.0,30.43,NE,48,2.0,-999.0,20,-99.99,,,-99.99,,2013-03-31 16:22:00,
2013-03-31 09:32:00,66.0,23.0,30.42,ENE,62,2.0,-999.0,19,-99.99,,,-99.99,,2013-03-31 16:32:00,
2013-03-31 09:42:00,66.0,23.0,30.42,ENE,62,2.0,-999.0,19,-99.99,,,-99.99,,2013-03-31 16:42:00,
2013-03-31 09:53:00,66.0,21.0,30.42,NNE,18,4.0,-999.0,18,-99.99,,,-99.99,,2013-03-31 16:53:00,
2013-03-31 10:02:00,67.0,22.0,30.45,NNE,17,2.0,-999.0,18,-99.99,,,-99.99,,2013-03-31 17:02:00,
2013-03-31 10:12:00,67.0,22.0,30.45,NNE,17,2.0,-999.0,18,-99.99,,,-99.99,,2013-03-31 17:12:00,
2013-03-31 10:22:00,69.0,22.0,30.44,NE,45,5.0,-999.0,17,-99.99,,,-99.99,,2013-03-31 17:22:00,
2013-03-31 10:31:00,68.0,22.0,30.45,ENE,66,4.0,-999.0,17,-99.99,,,-99.99,,2013-03-31 17:31:00,
2013-03-31 10:42:00,68.0,22.0,30.45,ENE,66,4.0,-999.0,17,-99.99,,,-99.99,,2013-03-31 17:42:00,
2013-03-31 10:52:00,69.0,22.0,30.45,ENE,66,4.0,-999.0,17,-99.99,,,-99.99,,2013-03-31 17:52:00,
2013-03-31 11:02:00,70.0,22.0,30.44,NW,309,4.0,-999.0,16,-99.99,,,-99.99,,2013-03-31 18:02:00,
2013-03-31 11:12:00,70.0,22.0,30.44,NW,309,4.0,-999.0,16,-99.99,,,-99.99,,2013-03-31 18:12:00,
2013-03-31 11:21:00,70.0,22.0,30.43,SSE,160,3.0,-999.0,16,-99.99,,,-99.99,,2013-03-31 18:21:00,
2013-03-31 11:32:00,71.0,23.0,30.43,SSE,157,3.0,-999.0,16,-99.99,,,-99.99,,2013-03-31 18:32:00,
2013-03-31 11:41:00,71.0,23.0,30.43,SSE,157,3.0,-999.0,16,-99.99,,,-99.99,,2013-03-31 18:41:00,
2013-03-31 11:53:00,71.0,23.0,30.42,NNE,20,5.0,-999.0,16,-99.99,,,-99.99,,2013-03-31 18:53:00,
2013-03-31 12:02:00,72.0,22.0,30.42,North,7,5.0,-999.0,15,-99.99,,,-99.99,,2013-03-31 19:02:00,
2013-03-31 12:11:00,72.0,22.0,30.42,North,7,5.0,-999.0,15,-99.99,,,-99.99,,2013-03-31 19:11:00,
2013-03-31 12:21:00,72.0,22.0,30.41,NNE,16,5.0,-999.0,15,-99.99,,,-99.99,,2013-03-31 19:21:00,
2013-03-31 12:32:00,74.0,23.0,30.41,NNW,339,3.0,-999.0,15,-99.99,,,-99.99,,2013-03-31 19:32:00,
2013-03-31 12:42:00,74.0,23.0,30.41,NNW,339,3.0,-999.0,15,-99.99,,,-99.99,,2013-03-31 19:42:00,
2013-03-31 12:53:00,73.0,23.0,30.41,NNE,32,2.0,-999.0,15,-99.99,,,-99.99,,2013-03-31 19:53:00,
2013-03-31 13:02:00,73.0,23.0,30.40,SSE,162,6.0,-999.0,15,-99.99,,,-99.99,,2013-03-31 20:02:00,
2013-03-31 13:11:00,73.0,23.0,30.40,SSE,162,6.0,-999.0,15,-99.99,,,-99.99,,2013-03-31 20:11:00,
2013-03-31 13:22:00,74.0,23.0,30.39,ESE,113,2.0,-999.0,15,-99.99,,,-99.99,,2013-03-31 20:22:00,
2013-03-31 13:32:00,76.0,23.0,30.39,NE,34,3.0,-999.0,14,-99.99,,,-99.99,,2013-03-31 20:32:00,
2013-03-31 13:42:00,76.0,23.0,30.39,NE,34,3.0,-999.0,14,-99.99,,,-99.99,,2013-03-31 20:42:00,
2013-03-31 13:52:00,75.0,23.0,30.38,NE,37,5.0,-999.0,14,-99.99,,,-99.99,,2013-03-31 20:52:00,
2013-03-31 14:02:00,76.0,22.0,30.38,NNE,17,4.0,-999.0,13,-99.99,,,-99.99,,2013-03-31 21:02:00,
2013-03-31 14:11:00,76.0,22.0,30.38,NNE,17,4.0,-999.0,13,-99.99,,,-99.99,,2013-03-31 21:11:00,
2013-03-31 14:22:00,76.0,20.0,30.36,WNW,288,7.0,-999.0,12,-99.99,,,-99.99,,2013-03-31 21:22:00,
2013-03-31 14:33:00,76.0,20.0,30.35,WNW,296,6.0,-999.0,12,-99.99,,,-99.99,,2013-03-31 21:33:00,
2013-03-31 14:42:00,76.0,20.0,30.35,WNW,296,6.0,-999.0,12,-99.99,,,-99.99,,2013-03-31 21:42:00,
2013-03-31 14:53:00,76.0,20.0,30.35,WSW,247,7.0,-999.0,12,-99.99,,,-99.99,,2013-03-31 21:53:00,
2013-03-31 15:02:00,75.0,19.0,30.35,WNW,299,10.0,-999.0,12,-99.99,,,-99.99,,2013-03-31 22:02:00,
2013-03-31 15:12:00,75.0,19.0,30.35,WNW,299,10.0,-999.0,12,-99.99,,,-99.99,,2013-03-31 22:12:00,
2013-03-31 15:23:00,77.0,18.0,30.34,NW,325,7.0,-999.0,11,-99.99,,,-99.99,,2013-03-31 22:23:00,
2013-03-31 15:32:00,77.0,18.0,30.35,NNW,330,7.0,-999.0,11,-99.99,,,-99.99,,2013-03-31 22:32:00,
2013-03-31 15:42:00,77.0,18.0,30.35,NNW,330,7.0,-999.0,11,-99.99,,,-99.99,,2013-03-31 22:42:00,
2013-03-31 15:53:00,76.0,20.0,30.33,WSW,256,6.0,-999.0,12,-99.99,,,-99.99,,2013-03-31 22:53:00,
2013-03-31 16:02:00,76.0,20.0,30.33,WSW,247,11.0,-999.0,12,-99.99,,,-99.99,,2013-03-31 23:02:00,
2013-03-31 16:12:00,76.0,20.0,30.33,WSW,247,11.0,-999.0,12,-99.99,,,-99.99,,2013-03-31 23:12:00,
2013-03-31 16:22:00,76.0,20.0,30.32,NNW,328,5.0,-999.0,12,-99.99,,,-99.99,,2013-03-31 23:22:00,
2013-03-31 16:31:00,76.0,20.0,30.34,NNW,330,6.0,-999.0,12,-99.99,,,-99.99,,2013-03-31 23:31:00,
2013-03-31 16:42:00,76.0,20.0,30.34,NNW,330,6.0,-999.0,12,-99.99,,,-99.99,,2013-03-31 23:42:00,
2013-03-31 16:53:00,76.0,20.0,30.33,NNW,336,7.0,-999.0,12,-99.99,,,-99.99,,2013-03-31 23:53:00,
2013-03-31 17:01:00,76.0,20.0,30.33,WNW,294,7.0,-999.0,12,-99.99,,,-99.99,,2013-04-01 00:01:00,
2013-03-31 17:12:00,76.0,20.0,30.33,WNW,294,7.0,-999.0,12,-99.99,,,-99.99,,2013-04-01 00:12:00,
2013-03-31 17:22:00,75.0,19.0,30.33,NW,319,6.0,-999.0,12,-99.99,,,-99.99,,2013-04-01 00:22:00,
2013-03-31 17:31:00,75.0,19.0,30.32,NW,309,7.0,-999.0,12,-99.99,,,-99.99,,2013-04-01 00:31:00,
2013-03-31 17:42:00,75.0,19.0,30.32,NW,309,7.0,-999.0,12,-99.99,,,-99.99,,2013-04-01 00:42:00,
2013-03-31 17:52:00,75.0,21.0,30.32,NNW,333,5.0,-999.0,13,-99.99,,,-99.99,,2013-04-01 00:52:00,
2013-03-31 18:01:00,74.0,20.0,30.33,WNW,298,8.0,-999.0,13,-99.99,,,-99.99,,2013-04-01 01:01:00,
2013-03-31 18:11:00,74.0,20.0,30.33,WNW,298,8.0,-999.0,13,-99.99,,,-99.99,,2013-04-01 01:11:00,
2013-03-31 18:22:00,72.0,18.0,30.31,WNW,299,8.0,-999.0,13,-99.99,,,-99.99,,2013-04-01 01:22:00,
2013-03-31 18:31:00,71.0,19.0,30.31,WNW,294,7.0,-999.0,14,-99.99,,,-99.99,,2013-04-01 01:31:00,
2013-03-31 18:42:00,71.0,19.0,30.31,WNW,294,7.0,-999.0,14,-99.99,,,-99.99,,2013-04-01 01:42:00,
2013-03-31 18:52:00,70.0,19.0,30.31,WNW,299,7.0,-999.0,14,-99.99,,,-99.99,,2013-04-01 01:52:00,
2013-03-31 19:02:00,70.0,19.0,30.33,NNW,330,5.0,-999.0,14,-99.99,,,-99.99,,2013-04-01 02:02:00,
2013-03-31 19:11:00,70.0,19.0,30.33,NNW,330,5.0,-999.0,14,-99.99,,,-99.99,,2013-04-01 02:11:00,
2013-03-31 19:21:00,68.0,19.0,30.33,NNW,328,2.0,-999.0,15,-99.99,,,-99.99,,2013-04-01 02:21:00,
2013-03-31 19:32:00,67.0,18.0,30.33,NNW,335,2.0,-999.0,15,-99.99,,,-99.99,,2013-04-01 02:32:00,
2013-03-31 19:42:00,67.0,18.0,30.33,NNW,335,2.0,-999.0,15,-99.99,,,-99.99,,2013-04-01 02:42:00,
2013-03-31 19:52:00,66.0,19.0,30.34,NNW,337,2.0,-999.0,16,-99.99,,,-99.99,,2013-04-01 02:52:00,
2013-03-31 20:02:00,66.0,19.0,30.34,NNW,332,3.0,-999.0,16,-99.99,,,-99.99,,2013-04-01 03:02:00,
2013-03-31 20:11:00,66.0,19.0,30.34,NNW,332,3.0,-999.0,16,-99.99,,,-99.99,,2013-04-01 03:11:00,
2013-03-31 20:22:00,65.0,18.0,30.35,NNW,343,2.0,-999.0,16,-99.99,,,-99.99,,2013-04-01 03:22:00,
2013-03-31 20:32:00,65.0,19.0,30.35,NNW,343,1.0,-999.0,17,-99.99,,,-99.99,,2013-04-01 03:32:00,
2013-03-31 20:42:00,65.0,19.0,30.35,NNW,343,1.0,-999.0,17,-99.99,,,-99.99,,2013-04-01 03:42:00,
2013-03-31 20:53:00,63.0,19.0,30.36,NNW,340,2.0,-999.0,18,-99.99,,,-99.99,,2013-04-01 03:53:00,
2013-03-31 21:02:00,61.0,20.0,30.35,NNW,340,2.0,-999.0,20,-99.99,,,-99.99,,2013-04-01 04:02:00,
2013-03-31 21:12:00,61.0,20.0,30.35,NNW,340,2.0,-999.0,20,-99.99,,,-99.99,,2013-04-01 04:12:00,
2013-03-31 21:23:00,59.0,19.0,30.35,NNW,340,2.0,-999.0,21,-99.99,,,-99.99,,2013-04-01 04:23:00,
2013-03-31 21:32:00,60.0,19.0,30.36,NNW,339,2.0,-999.0,20,-99.99,,,-99.99,,2013-04-01 04:32:00,
2013-03-31 21:42:00,60.0,19.0,30.36,NNW,339,2.0,-999.0,20,-99.99,,,-99.99,,2013-04-01 04:42:00,
2013-03-31 21:53:00,61.0,18.0,30.36,NW,305,2.0,-999.0,19,-99.99,,,-99.99,,2013-04-01 04:53:00,
2013-03-31 22:02:00,63.0,19.0,30.37,NW,305,2.0,-999.0,18,-99.99,,,-99.99,,2013-04-01 05:02:00,
2013-03-31 22:12:00,63.0,19.0,30.37,NW,305,2.0,-999.0,18,-99.99,,,-99.99,,2013-04-01 05:12:00,
2013-03-31 22:21:00,64.0,18.0,30.38,NW,313,2.0,-999.0,17,-99.99,,,-99.99,,2013-04-01 05:21:00,
2013-03-31 22:32:00,63.0,19.0,30.37,WNW,302,2.0,-999.0,18,-99.99,,,-99.99,,2013-04-01 05:32:00,
2013-03-31 22:42:00,63.0,19.0,30.37,WNW,302,2.0,-999.0,18,-99.99,,,-99.99,,2013-04-01 05:42:00,
2013-03-31 22:52:00,64.0,18.0,30.37,NW,325,1.0,-999.0,17,-99.99,,,-99.99,,2013-04-01 05:52:00,
2013-03-31 23:01:00,66.0,19.0,30.36,West,280,8.0,-999.0,16,-99.99,,,-99.99,,2013-04-01 06:01:00,
2013-03-31 23:22:00,66.0,17.0,30.36,NW,305,8.0,-999.0,15,-99.99,,,-99.99,,2013-04-01 06:22:00,
2013-03-31 23:32:00,65.0,16.0,30.35,WNW,295,6.0,-999.0,15,-99.99,,,-99.99,,2013-04-01 06:32:00,
2013-03-31 23:52:00,65.0,15.0,30.35,WNW,288,10.0,-999.0,14,-99.99,,,-99.99,,2013-04-01 06:52:00,